Location: Azul
(36.7830°S, 59.8500°W)
Time: 13:10:03
(UTC-03:00)

Tiangong - Visible Passes

Search period start: 04 August 2021 00:00
Search period end: 14 August 2021 00:00
Orbit: 373 x 386 km, 41.5° (Epoch: 04 August)

Date Brightness Start Highest point End Pass type
(mag) Time Alt. Az. Time Alt. Az. Time Alt. Az.
04 Aug 1.0 18:51:16 10° WNW 18:54:26 87° NNE 18:57:22 12° ESE visible
04 Aug 3.9 20:28:25 10° WSW 20:29:28 18° WSW 20:29:28 18° WSW visible
05 Aug 1.8 19:26:51 10° W 19:29:55 43° SSW 19:31:07 28° SE visible
06 Aug 2.6 20:02:35 10° WSW 20:04:50 29° SSW 20:04:50 29° SSW visible
07 Aug 2.1 19:01:01 10° WSW 19:04:00 35° S 19:06:26 14° ESE visible
07 Aug 4.3 20:38:05 10° WSW 20:38:33 13° WSW 20:38:33 13° WSW visible
08 Aug 2.0 19:36:39 10° WSW 19:39:36 34° S 19:40:09 31° SSE visible
09 Aug 2.7 20:11:59 10° WSW 20:13:53 30° SW 20:13:53 30° SW visible
10 Aug 1.8 19:10:36 10° WSW 19:13:37 39° S 19:15:33 18° ESE visible
10 Aug 4.5 20:47:19 10° WSW 20:47:40 13° WSW 20:47:40 13° WSW visible
11 Aug 0.9 19:45:51 10° WSW 19:49:02 78° SSE 19:49:24 65° E visible
12 Aug 3.1 20:21:17 10° W 20:23:21 28° WNW 20:23:21 28° WNW visible
13 Aug 1.4 19:19:41 10° WSW 19:22:51 65° NNW 19:25:18 15° NE visible
